Location: Arzercavalli
(45.2500°N, 11.9333°E)
Time: 13:04:45
(UTC+00:00)

Daily predictions for brighter satellites

Satellite Brightness Start Highest point End
(mag) Time Altitude Azimuth Time Altitude Azimuth Time Altitude Azimuth
DMSP B5D2-2 4.3 19:28:25 10° N 19:33:40 79° WNW 19:38:51 10° SSW
USA 245 4.5 19:31:41 10° ESE 19:34:32 26° ENE 19:37:59 10° N
H-2A ROCKET BODY 4.3 19:31:37 10° SSW 19:35:27 19° SSE 19:44:07 10° ESE
Meteor 2-10 Rocket 3.7 19:30:59 10° N 19:36:01 57° ENE 19:41:12 10° SSE
Cosmos 1758 Rocket 4.4 19:32:52 10° SSE 19:36:51 32° E 19:40:53 10° NNE
Cosmos 1400 Rocket 4.1 19:34:58 10° NNE 19:38:19 25° ENE 19:41:37 10° SE
Cosmos 1626 Rocket 3.6 19:33:57 10° S 19:38:24 90° ENE 19:42:54 10° N
Lacrosse 5 rocket 3.9 19:37:13 10° WNW 19:40:48 25° NNW 19:44:15 10° NE
Spot 2 Rocket 4.1 19:37:24 10° SE 19:42:11 43° ENE 19:47:00 10° N
ATLAS 5 CENTAUR R/B 4.2 19:40:01 10° WSW 19:43:30 22° NW 19:45:30 10° N
Cosmos 1745 Rocket 4.1 19:40:32 10° S 19:46:38 64° E 19:52:49 10° NNE
Landsat 7 4.4 19:43:28 10° SE 19:47:57 43° ENE 19:52:27 10° N
Resurs 1-3 4.3 19:45:46 10° S 19:50:03 54° W 19:54:22 10° NNW
Cosmos 1125 Rocket 3.9 19:46:18 10° NNW 19:51:31 65° WSW 19:56:43 10° S
Meteor 1-21 Rocket 4.3 19:49:48 10° S 19:55:42 78° E 20:01:39 10° NNE
USA 267 4.4 19:50:17 10° E 19:56:15 39° NNE 20:02:14 10° NW
SPOT 1/Viking Rocket 4.1 19:51:28 10° SE 19:56:20 45° ENE 20:01:15 10° N
Cosmos 1953 Rocket 4.5 19:56:14 10° SSE 19:59:59 30° E 20:03:46 10° NNE
VEP-3 4.5 19:57:52 10° SSW 20:00:36 13° SSE 20:03:43 10° SE
Cosmos 2322 Rocket 2.8 19:55:48 10° SW 20:01:19 61° WNW 20:06:55 10° NNE
Alouette 2 Rocket 4.1 19:57:52 10° N 20:01:34 44° ENE 20:06:10 11° SSE
SL-08 ROCKET BODY 4.4 19:56:10 10° S 20:02:05 83° E 20:08:11 10° N
NOSS 7 (D) 4.0 20:00:42 10° SW 20:03:34 76° NW 20:06:15 10° NE
Cosmos 2237 4.2 19:58:17 10° SSW 20:04:00 83° ESE 20:09:47 10° NNE
Cosmos 1328 4.0 20:02:27 10° S 20:06:17 50° E 20:10:09 10° NNE
SAR-Lupe-2 4.2 20:07:14 10° NNE 20:10:36 36° E 20:13:38 12° SSE
Cosmos 1455 2.3 20:08:52 10° NNW 20:12:43 76° W 20:16:34 10° S
Cosmos 1825 Rocket 3.6 20:11:12 10° S 20:15:36 67° E 20:20:03 10° NNE
ATLAS CENTAUR R/B 2.6 20:16:12 10° NNW 20:19:24 26° NE 20:22:16 11° E
Cosmos 1703 3.2 20:16:20 10° S 20:20:11 84° E 20:24:06 10° N
COSMOS 2428 3.3 20:16:09 10° S 20:21:14 36° ESE 20:26:21 10° NE
SL-24 R/B - RUBIN 2 4.4 20:18:08 10° SSW 20:24:02 68° ESE 20:30:36 10° NE
Cosmos 1844 3.8 20:19:03 10° NNW 20:24:52 82° ENE 20:29:32 16° SSE
Cosmos 2322 3.7 20:19:24 10° S 20:25:03 64° ESE 20:30:43 10° NNE
CZ-4B DEB 4.4 20:28:15 19° SSE 20:30:29 67° ENE 20:33:49 10° N
Cosmos 1709 Rocket 4.0 20:25:24 10° S 20:31:40 79° E 20:38:03 10° N
NOSS 3-3 (A) 4.1 20:28:03 10° SSW 20:33:36 49° ESE 20:39:46 10° NE
NOSS 3-3 (C) 4.1 20:28:11 10° S 20:33:42 48° ESE 20:39:53 10° NE
Terra 2.4 20:31:40 18° SE 20:34:55 43° ENE 20:39:25 10° N
Cosmos 2237 Rocket 3.7 20:33:11 16° SE 20:35:09 18° E 20:38:56 10° ENE
CARTOSAT-1 3.6 20:32:57 18° SSE 20:36:02 66° ENE 20:40:19 10° N
Atlas Centaur 2 3.7 20:31:28 10° SW 20:36:03 22° S 20:38:47 17° SSE
Cosmos 2333 4.1 20:31:13 10° SSW 20:36:50 76° ESE 20:42:32 10° NNE
Cosmos 2219 Rocket 2.3 20:31:50 10° S 20:37:14 53° ESE 20:42:41 10° NE
Cosmos 2360 Rocket 2.9 20:33:40 10° SW 20:39:13 57° WNW 20:44:50 10° NNE
IGS 5A 4.0 20:35:34 12° S 20:39:15 56° W 20:43:22 10° NNW
Cosmos 1538 Rocket 4.2 20:35:01 11° S 20:40:04 52° ESE 20:45:15 10° NNE
IRIS 4.4 20:40:37 10° WSW 20:43:13 32° S 20:43:18 32° S
DELTA 2 R/B (1) 4.4 20:39:54 10° SSW 20:44:30 27° SSE 20:49:09 10° E
Cosmos 2333 Rocket 2.2 20:41:22 10° SSW 20:47:00 69° ESE 20:52:42 10° NNE
Resurs 01 Rocket 3.9 20:48:06 10° SW 20:51:19 20° W 20:54:32 10° NW
Cosmos 1315 Rocket 3.0 20:47:59 10° N 20:52:03 61° ENE 20:54:13 26° SSE
ATLAS 2AS CENTAUR R/B 4.0 20:45:07 10° NNW 20:52:11 38° NE 20:58:43 10° ESE
Cosmos-2242 4.0 20:51:19 10° NNW 20:55:28 45° W 20:59:06 13° SSW
Cosmos 773 Rocket 4.2 20:51:46 10° SSW 20:57:03 76° WNW 21:02:22 10° NNE
ERS-1 Rocket 3.1 20:56:51 19° S 21:00:28 71° WSW 21:05:32 10° NNW
Cosmos 2221 3.1 20:56:19 10° N 21:00:32 44° ENE 21:02:29 27° SE
GEOS 3 Rocket 4.3 20:58:11 10° NNE 21:03:30 60° NW 21:08:46 10° SW
USA 215 3.2 21:00:08 10° NE 21:06:45 83° SE 21:13:18 10° SW
Cosmos 1892 3.7 21:07:02 27° ESE 21:07:47 30° E 21:11:08 10° NNE
Cosmos 2278 Rocket 2.7 21:04:16 10° NNW 21:09:48 52° ENE 21:13:09 23° SE
ATLAS 5 CENTAUR R/B 3.3 21:07:45 10° WSW 21:11:38 36° NW 21:16:01 10° NNE
Cosmos 1844 Rocket 3.9 21:09:26 10° NW 21:14:23 33° WSW 21:18:16 15° SSW
Gblst 52 Del rocket 4.4 21:09:58 10° WNW 21:15:43 81° NNE 21:20:33 18° ESE
SPOT 5 3.4 21:13:56 21° S 21:17:14 57° W 21:22:00 10° NNW
SL-16 R/B 3.9 21:18:56 15° ESE 21:19:33 15° E 21:22:40 10° ENE
Lacrosse 5 rocket 4.2 21:18:36 10° NW 21:21:09 16° N 21:23:38 10° NE
Nadezhda 3 Rocket 4.4 21:19:40 10° N 21:25:53 53° ENE 21:29:11 27° SE
Cosmos 2154 Rocket 4.3 21:23:04 27° SSE 21:26:11 51° E 21:32:10 10° NNE
Cosmos 2058 3.2 21:24:59 37° SE 21:26:12 51° E 21:30:13 10° NNE
BREEZE M DEB (TANK) 3.5 21:26:33 10° W 21:27:39 21° WSW 21:27:39 21° WSW
Cosmos 1408 3.5 21:29:06 31° E 21:29:16 31° E 21:32:28 10° NNE
Meteor 2-17 Rocket 4.4 21:27:25 26° S 21:30:56 72° E 21:36:59 10° NNE
In-Cosmos 22 Rocket 4.0 21:29:54 30° S 21:32:32 69° E 21:37:50 10° NNE
Cosmos 2074 Rocket 4.0 21:29:15 22° S 21:33:28 89° W 21:39:44 10° N
TSX-5 3.8 21:32:53 10° NNW 21:36:24 70° ENE 21:37:36 43° SE
Cosmos 1076 Rocket 3.6 21:36:08 41° SSE 21:37:23 61° E 21:41:38 10° NNE
Cosmos 1680 Rocket 3.7 21:35:42 33° SSE 21:37:51 56° ESE 21:43:04 10° NNE
USA 267 3.3 21:34:05 21° ESE 21:38:47 81° NE 21:45:23 10° NW
Cosmos 2084 3.9 21:42:39 10° NW 21:46:58 49° WSW 21:48:05 39° SSW
Cosmos 1842 Rocket 4.2 21:43:05 10° NNW 21:47:17 48° W 21:49:02 30° SSW
Cosmos 2151 3.8 21:47:18 32° ESE 21:47:54 34° E 21:51:46 10° NNE
Cosmos 923 Rocket 4.0 21:52:20 26° SSW 21:55:23 81° WNW 22:00:42 10° NNE
Cosmos 2327 Rocket 4.4 21:52:14 29° S 21:55:40 88° W 22:01:50 10° N
ATLAS CENTAUR R/B 2.2 21:55:02 10° NW 21:58:16 29° WSW 21:58:26 29° WSW
Cosmos 1825 2.5 21:58:09 47° ESE 21:58:20 48° E 22:02:00 10° NNE
ALOS 2 3.6 21:58:03 29° ESE 21:59:22 35° ENE 22:03:22 10° N
Cosmos 1980 3.6 21:56:54 26° SSW 22:00:15 90° WNW 22:05:57 10° NNE
Cosmos 2369 Rocket 4.4 21:58:07 10° N 22:01:44 17° NE 22:05:20 10° E
Cosmos 1151 Rocket 4.4 21:58:28 10° NNE 22:02:10 27° ENE 22:03:13 24° E
Cosmos 44 3.9 22:05:14 32° ESE 22:05:14 32° ESE 22:08:43 10° NE
COSMOS 2428 4.0 22:00:11 10° WSW 22:05:27 39° NW 22:10:46 10° NNE
Cosmos 1295 Rocket 4.4 22:06:31 34° S 22:09:22 85° E 22:15:30 10° N
GP-B 3.9 22:06:32 10° NNE 22:10:41 37° E 22:11:23 35° ESE
NOSS 0 Rocket 4.2 22:07:31 15° SW 22:12:43 66° WNW 22:18:53 10° NNE
Terra 3.6 22:10:34 16° SW 22:12:50 23° W 22:16:36 10° NW
Cosmos 962 Rocket 4.5 22:12:15 36° S 22:14:58 75° E 22:21:20 10° NNE
Cosmos 1624 Rocket 4.0 22:10:00 10° NNW 22:15:16 76° ENE 22:16:57 43° SE
NOSS 3-4 (A) 3.8 22:08:45 10° NW 22:15:47 88° SW 22:19:47 32° SE
NOSS 3-4 (C) 3.8 22:08:51 10° NW 22:15:54 89° SW 22:19:55 32° SE
Cosmos 2237 Rocket 2.4 22:14:58 23° SW 22:18:34 71° WNW 22:24:17 10° NNE
Genesis I 3.2 22:18:35 54° SW 22:19:24 79° NW 22:23:19 10° NE
Nimbus 7 Rocket 4.5 22:14:28 10° NNE 22:20:21 61° ESE 22:22:22 40° SSE
Cosmos 2344 3.4 22:16:02 21° SSW 22:21:18 77° SE 22:29:17 10° NE
Cosmos 2219 Rocket 4.1 22:16:46 10° WSW 22:21:29 27° NW 22:26:16 10° N
Atlas Centaur 2 4.4 22:20:01 10° SW 22:21:21 14° SW 22:21:21 14° SW
Cosmos 1346 Rocket 4.5 22:28:04 21° E 22:28:04 21° E 22:30:56 10° NE
DELTA 2 R/B (1) 3.8 22:24:58 10° WSW 22:36:22 - E 22:30:02 46° S
Thor Agena Rocket 3.8 22:26:03 10° N 22:31:06 62° WNW 22:33:18 33° SW
Cosmos 2333 Rocket 4.4 22:27:20 10° W 22:31:50 23° NW 22:36:21 10° N
BREEZE-M DEB (TANK) 2.4 22:38:51 10° WNW 22:41:22 42° NW 22:41:22 42° NW
Cosmos 1515 Rocket 4.3 22:38:20 10° N 22:42:27 39° ENE 22:43:15 36° ESE
Cosmos 1371 Rocket 4.3 22:37:48 10° NNW 22:42:57 57° WSW 22:44:15 44° SSW
ATLAS 2AS CENTAUR R/B 2.8 22:36:15 10° NW 22:43:42 67° WSW 22:46:25 39° S
EO 1 Del DPAF 4.2 22:40:38 10° N 22:44:09 38° WNW 22:44:59 33° WSW
Cosmos 1766 Rocket 3.4 22:44:24 65° S 22:45:03 89° W 22:49:29 10° N
Okean 3 Rocket 3.6 22:47:02 55° SW 22:47:53 73° W 22:52:20 10° N
Gbstr 26 Del rocket 4.0 22:49:28 29° E 22:49:28 29° E 22:51:48 10° ENE
USA 215 4.4 22:43:19 10° NE 22:49:27 43° NNW 22:55:33 10° W
Cosmos 1328 Rocket 3.4 22:45:34 10° N 22:49:53 80° E 22:50:25 67° SSE
Aureole 2 Rocket 3.4 22:47:08 10° NNW 22:48:59 36° NW 22:48:59 36° NW
Cosmos 1606 2.7 22:48:20 10° NNW 22:52:13 72° W 22:52:19 72° WSW
Cosmos 2218 Rocket 4.0 22:50:54 42° S 22:53:17 82° E 22:59:37 10° N
Cosmos 2278 Rocket 3.5 22:48:57 10° NW 22:53:33 26° WSW 22:54:59 23° SW
Cosmos 864 Rocket 4.5 22:52:04 42° S 22:54:18 77° E 23:00:36 10° N
Cosmos 2297 3.6 22:49:39 10° NNW 22:55:26 85° WSW 22:57:11 47° SSE
Cosmos 2228 Rocket 4.3 22:53:56 10° N 22:58:07 33° ENE 22:59:19 29° ESE
Cosmos 2366 rocket 4.0 22:56:35 42° S 22:58:57 86° E 23:05:21 10° N
Cosmos 1420 Rocket 3.9 22:53:55 10° NNW 22:59:14 87° WSW 23:00:36 51° SSE
Cosmos 1633 3.3 23:01:11 42° ENE 23:01:11 42° ENE 23:04:19 10° NNE
Lacrosse 5 rocket 3.5 22:58:10 10° NW 23:01:30 24° NNE 23:04:41 10° ENE
Cosmos 1943 Rocket 2.7 22:56:29 10° NNW 23:02:05 56° ENE 23:04:40 31° ESE
SL-16 R/B 2.2 23:00:46 41° SSW 23:02:52 83° WNW 23:08:35 10° NNE
Landsat 4 4.3 23:00:32 10° NNE 23:03:59 44° E 23:03:59 44° E
Cosmos 2056 Rocket 4.2 23:01:45 10° NW 23:06:50 42° WSW 23:07:58 37° SW
Cosmos 1959 Rocket 4.4 23:06:20 42° SSW 23:08:36 79° W 23:14:49 10° N
YAOGAN 11 4.1 23:09:09 58° SE 23:09:52 71° ENE 23:14:17 10° N
Cosmos 1743 Rocket 3.7 23:12:36 52° ESE 23:12:59 54° E 23:17:14 10° NNE
Cosmos 332 Rocket 3.6 23:15:46 10° NNW 23:20:35 86° WSW 23:21:28 60° SSE
Cosmos 1048 Rocket 4.2 23:19:32 49° SSE 23:20:39 60° ESE 23:25:51 10° NNE
USA 267 4.0 23:21:24 31° SW 23:22:11 32° SW 23:27:59 10° WNW
Meteor 2-3 Rocket 3.8 23:21:02 44° SSW 23:22:50 74° WNW 23:28:33 10° N
Helios 1A 3.0 23:24:53 61° WSW 23:25:07 63° WSW 23:29:16 10° NNW
Cosmos 405 3.1 23:25:52 10° N 23:29:08 74° N 23:29:08 74° N
Cosmos 1452 Rocket 3.5 23:28:46 10° NNW 23:34:00 66° WSW 23:35:06 52° SSW
Cosmos 1340 3.6 23:34:23 35° W 23:34:39 36° WNW 23:38:10 10° N
CZ-4C R/B 3.5 23:28:14 10° NNW 23:35:15 58° NE 23:43:19 10° SE
ALOS 2 4.1 23:35:27 24° W 23:35:46 24° W 23:39:21 10° NW
Meteor 2-6 Rocket 4.3 23:30:32 10° N 23:35:59 64° ENE 23:37:53 39° SE
COSMOS 2455 2.8 23:30:01 10° NNW 23:36:05 84° WSW 23:38:24 40° SSE
PSLV R/B 3.5 23:31:55 10° NNE 23:36:08 68° ESE 23:36:34 63° SE
Cosmos 1408 Rocket 4.3 23:35:56 38° WSW 23:36:44 43° WNW 23:40:57 10° N
SL-16 R/B 4.2 23:32:12 10° ESE 23:37:18 28° ENE 23:42:28 10° N
Cosmos 1603 4.0 23:36:25 43° SSE 23:37:50 55° ESE 23:43:24 10° NNE
Cosmos 1110 Rocket 4.4 23:32:44 10° NNW 23:37:58 58° ENE 23:40:16 32° SE
Cosmos 1151 Rocket 4.3 23:35:59 10° NNW 23:39:41 28° W 23:40:03 28° W
Cosmos 1500 Rocket 3.5 23:44:49 60° SW 23:45:28 71° W 23:49:52 10° N
Cosmos 1727 Rocket 4.2 23:39:50 10° NNW 23:45:55 57° W 23:48:04 39° SSW
Resurs 1-4 Rocket 3.9 23:42:40 10° NE 23:46:33 20° E 23:48:44 16° ESE
Cosmos 2369 Rocket 2.1 23:41:00 10° NNW 23:46:39 84° ENE 23:48:49 39° SSE
ISS -1.6 23:51:00 18° E 23:51:00 18° E 23:52:10 10° ENE
Cosmos 371 Rocket 4.2 23:45:45 10° NW 23:50:05 33° WSW 23:50:25 33° WSW
SeaSat 1 3.6 23:46:11 10° NE 23:50:26 28° ESE 23:51:20 27° SE
Cosmos 1000 Rocket 4.5 23:46:31 10° N 23:52:54 88° W 23:55:26 40° S
Helios 1B rocket 2.3 23:50:46 10° NNE 23:54:55 90° W 23:55:23 70° SSW
